Flag for U.S.A. Weather past 2 weeks in Bridgewater, Massachusetts, U.S.A.

Now
77 °F

Scattered clouds.


Feels Like: 79 °F
Forecast: 66 / 89 °F
Wind: 7 mph from West

Location: Taunton Municipal Airport

Current Time: Aug 31, 2015 at 9:24:20 AM

Latest Report: Aug 31, 2015 at 8:52 AM


Visibility: 10 mi

Pressure: 29.98 "Hg

Humidity: 74%

Dew point: 68 °F

Location of BridgewaterLocation

Historic Weather in Bridgewater — Graph

°F

Bridgewater temperature yesterday

Maximum temperature yesterday: 88 °F (at 3:52 PM)
Minimum temperature yesterday: 60 °F (at 5:52 AM)
Average temperature yesterday: 76 °F

Past Weeks' High & Low Weather Summary

 TemperatureHumidityPressure
High92 °F (Aug 17, 1:52 PM)97% (Aug 17, 5:52 AM)30.19 "Hg (Aug 17, 5:52 AM)
Low51 °F (Aug 28, 6:00 AM)38% (Aug 28, 4:52 PM)29.83 "Hg (Aug 25, 4:52 PM)
Average74 °F76%30.01 "Hg
* Reported Aug 16 7:52 AM — Aug 31 7:52 AM, Bridgewater, Weather by CustomWeather, © 2015

Note: Actual official high and low records may vary slightly from our data, if they occured in-between our weather recording intervals... More about our weather records

Advertising

Bridgewater weather history for previous 24 hours

 ConditionsComfort  
Time TempWeatherWind HumidityBarometerVisibility
7:52 AM
Mon, Aug 31
74 °FPassing clouds.No wind85%29.98 "Hg10 mi
6:52 AM68 °FFog.No wind90%29.97 "Hg3 mi
5:52 AM66 °FFog.No wind93%29.97 "Hg4 mi
4:58 AM68 °FFog.No wind93%29.97 "Hg2 mi
3:52 AM70 °FClear.3 mph90%29.97 "Hg8 mi
2:52 AM72 °FClear.6 mph87%29.98 "Hg10 mi
1:52 AM73 °FClear.6 mph84%29.99 "Hg10 mi
12:52 AM73 °FPassing clouds.3 mph84%30.00 "Hg10 mi
11:52 PM
Sun, Aug 30
74 °FPassing clouds.5 mph82%30.01 "Hg10 mi
10:52 PM75 °FMostly cloudy.3 mph76%30.01 "Hg10 mi
9:52 PM75 °FPassing clouds.No wind76%30.02 "Hg10 mi
8:52 PM76 °FClear.3 mph74%30.01 "Hg10 mi
7:52 PM77 °FSunny.5 mph71%30.00 "Hg10 mi
6:52 PM79 °FSunny.6 mph67%29.99 "Hg10 mi
5:52 PM83 °FSunny.9 mph57%29.98 "Hg10 mi
4:52 PM87 °FSunny.7 mph40%29.98 "Hg10 mi
3:52 PM88 °FScattered clouds.12 mph38%30.00 "Hg10 mi
2:52 PM87 °FPassing clouds.6 mph43%30.01 "Hg10 mi
1:52 PM86 °FBroken clouds.5 mph48%30.03 "Hg10 mi
12:52 PM84 °FBroken clouds.6 mph51%30.04 "Hg10 mi
11:52 AM84 °FSunny.5 mph55%30.06 "Hg10 mi
10:52 AM81 °FSunny.5 mph60%30.07 "Hg10 mi
9:52 AM78 °FSunny.6 mph66%30.07 "Hg10 mi
Weather by CustomWeather, © 2015

See weather overviewHow to use our weather pages